Location: Mexico
(19.4000°N, 99.1500°W)
Time: 11:25:22
(UTC-06:00)

ISS - Pass Details

Date: 15 January 2020
Orbit: 415 x 422 km, 51.6° (Epoch: 23 January)

Event Time Altitude Azimuth Distance (km) Brightness Sun altitude
Rises 19:45:24 0° 221° (SW) 2,355 1.0 -20.2°
Reaches altitude 10° 19:47:29 10° 223° (SW) 1,493 -0.1 -20.6°
Enters shadow 19:50:40 71° 276° (W) 443 -3.6 -21.4°
